When you browse on this site, cookies collect data to enhance your experience and personalize the content and advertising you see.
Visit our Privacy Policy to learn more. By continuing to use the site, you agree to this use of cookies and data.

Stündliche Wetter Juatuba

Heute, 29 September, Dienstag

Zeit Temperatur Niederschläge Wind Luftdruck Luftfeuchtigkeit
00:00 +27°C° 0 mm 1 m/S 699 mmHg 29%
01:00 +26°C° 0 mm 1 m/S 699 mmHg 33%
02:00 +25°C° 0 mm 1 m/S 698 mmHg 36%
03:00 +23°C° 0 mm 1 m/S 698 mmHg 39%
04:00 +23°C° 0 mm 1 m/S 698 mmHg 40%
05:00 +23°C° 0 mm 1 m/S 699 mmHg 42%
06:00 +22°C° 0 mm 1 m/S 699 mmHg 44%
07:00 +26°C° 0 mm 1 m/S 700 mmHg 37%
08:00 +29°C° 0 mm 1 m/S 701 mmHg 31%
09:00 +34°C° 0 mm 2 m/S 702 mmHg 25%
10:00 +36°C° 0 mm 2 m/S 702 mmHg 22%
11:00 +37°C° 0 mm 1 m/S 702 mmHg 19%
12:00 +40°C° 0 mm 1 m/S 701 mmHg 16%
13:00 +40°C° 0 mm 1 m/S 701 mmHg 16%
14:00 +39°C° 0 mm 2 m/S 700 mmHg 16%
15:00 +39°C° 0 mm 2 m/S 699 mmHg 16%
16:00 +37°C° 0 mm 2 m/S 699 mmHg 19%
17:00 +35°C° 0 mm 2 m/S 699 mmHg 23%
18:00 +32°C° 0 mm 2 m/S 699 mmHg 27%
19:00 +30°C° 0 mm 3 m/S 699 mmHg 31%
20:00 +29°C° 0 mm 3 m/S 700 mmHg 36%
21:00 +28°C° 0 mm 3 m/S 701 mmHg 40%
22:00 +27°C° 0 mm 3 m/S 701 mmHg 44%
23:00 +26°C° 0 mm 2 m/S 701 mmHg 49%

Morgen, 30 September, Mittwoch

Zeit Temperatur Niederschläge Wind Luftdruck Luftfeuchtigkeit
00:00 +25°C° 0 mm 2 m/S 701 mmHg 53%
01:00 +25°C° 0 mm 2 m/S 700 mmHg 55%
02:00 +25°C° 0 mm 3 m/S 700 mmHg 57%
03:00 +24°C° 0 mm 3 m/S 700 mmHg 59%
04:00 +24°C° 0 mm 2 m/S 700 mmHg 63%
05:00 +23°C° 0 mm 2 m/S 701 mmHg 67%
06:00 +23°C° 0 mm 2 m/S 701 mmHg 70%
07:00 +25°C° 0 mm 2 m/S 702 mmHg 61%
08:00 +28°C° 0 mm 3 m/S 702 mmHg 52%
09:00 +30°C° 0 mm 3 m/S 703 mmHg 42%
10:00 +33°C° 0 mm 3 m/S 703 mmHg 37%
11:00 +35°C° 0 mm 3 m/S 702 mmHg 32%
12:00 +37°C° 0 mm 3 m/S 702 mmHg 27%
13:00 +37°C° 0 mm 3 m/S 701 mmHg 26%
14:00 +37°C° 0 mm 3 m/S 700 mmHg 25%
15:00 +38°C° 0 mm 3 m/S 700 mmHg 23%
16:00 +36°C° 0 mm 3 m/S 700 mmHg 27%
17:00 +34°C° 0 mm 3 m/S 699 mmHg 30%
18:00 +31°C° 0 mm 3 m/S 699 mmHg 34%
19:00 +30°C° 0 mm 3 m/S 700 mmHg 38%
20:00 +29°C° 0 mm 3 m/S 700 mmHg 41%
21:00 +27°C° 0 mm 3 m/S 700 mmHg 45%
22:00 +27°C° 0 mm 3 m/S 700 mmHg 48%
23:00 +26°C° 0 mm 2 m/S 700 mmHg 51%

übermorgen, 1 Oktober, Donnerstag

Zeit Temperatur Niederschläge Wind Luftdruck Luftfeuchtigkeit
00:00 +25°C° 0 mm 2 m/S 700 mmHg 54%
01:00 +24°C° 0 mm 2 m/S 700 mmHg 57%
02:00 +24°C° 0 mm 2 m/S 700 mmHg 60%
03:00 +23°C° 0 mm 2 m/S 699 mmHg 63%
04:00 +23°C° 0 mm 1 m/S 700 mmHg 66%
05:00 +22°C° 0 mm 1 m/S 700 mmHg 69%
06:00 +22°C° 0 mm 1 m/S 700 mmHg 71%
07:00 +25°C° 0 mm 1 m/S 700 mmHg 61%
08:00 +28°C° 0 mm 2 m/S 701 mmHg 51%
09:00 +30°C° 0 mm 2 m/S 702 mmHg 42%
10:00 +33°C° 0 mm 3 m/S 701 mmHg 36%
11:00 +35°C° 0 mm 3 m/S 701 mmHg 30%
12:00 +37°C° 0 mm 3 m/S 700 mmHg 25%
13:00 +37°C° 0 mm 3 m/S 700 mmHg 23%
14:00 +38°C° 0 mm 3 m/S 699 mmHg 21%
15:00 +38°C° 0 mm 3 m/S 699 mmHg 20%
16:00 +36°C° 0 mm 3 m/S 698 mmHg 23%
17:00 +34°C° 0 mm 3 m/S 698 mmHg 27%
18:00 +31°C° 0 mm 3 m/S 698 mmHg 30%
19:00 +29°C° 0 mm 3 m/S 698 mmHg 34%
20:00 +28°C° 0 mm 3 m/S 699 mmHg 39%
21:00 +27°C° 0 mm 3 m/S 699 mmHg 43%
22:00 +26°C° 0 mm 3 m/S 699 mmHg 47%
23:00 +25°C° 0 mm 2 m/S 699 mmHg 51%

2 Oktober, Freitag

Zeit Temperatur Niederschläge Wind Luftdruck Luftfeuchtigkeit
00:00 +24°C° 0 mm 2 m/S 699 mmHg 54%
01:00 +24°C° 0 mm 2 m/S 699 mmHg 57%
02:00 +23°C° 0 mm 2 m/S 699 mmHg 60%
03:00 +23°C° 0 mm 1 m/S 698 mmHg 62%
04:00 +22°C° 0 mm 1 m/S 699 mmHg 65%
05:00 +22°C° 0 mm 1 m/S 699 mmHg 67%
06:00 +19°C° 0 mm 0 m/S 699 mmHg 69%
07:00 +25°C° 0 mm 1 m/S 700 mmHg 58%
08:00 +28°C° 0 mm 1 m/S 700 mmHg 48%
09:00 +32°C° 0 mm 1 m/S 701 mmHg 37%
10:00 +34°C° 0 mm 1 m/S 701 mmHg 32%
11:00 +35°C° 0 mm 1 m/S 700 mmHg 27%
12:00 +38°C° 0 mm 2 m/S 700 mmHg 22%
13:00 +39°C° 0 mm 2 m/S 700 mmHg 21%
14:00 +39°C° 0 mm 2 m/S 699 mmHg 20%
15:00 +39°C° 0 mm 2 m/S 698 mmHg 19%
16:00 +37°C° 0 mm 2 m/S 698 mmHg 22%
17:00 +35°C° 0 mm 2 m/S 698 mmHg 26%
18:00 +32°C° 0 mm 2 m/S 698 mmHg 29%
19:00 +31°C° 0 mm 2 m/S 698 mmHg 33%
20:00 +29°C° 0 mm 2 m/S 698 mmHg 36%
21:00 +28°C° 0 mm 2 m/S 699 mmHg 40%
22:00 +27°C° 0 mm 2 m/S 699 mmHg 43%
23:00 +26°C° 0 mm 2 m/S 699 mmHg 46%

3 Oktober, Samstag

Zeit Temperatur Niederschläge Wind Luftdruck Luftfeuchtigkeit
00:00 +25°C° 0 mm 1 m/S 699 mmHg 49%
01:00 +25°C° 0 mm 1 m/S 698 mmHg 50%
02:00 +24°C° 0 mm 1 m/S 698 mmHg 52%
03:00 +24°C° 0 mm 1 m/S 698 mmHg 53%
04:00 +23°C° 0 mm 1 m/S 698 mmHg 55%
05:00 +23°C° 0 mm 1 m/S 698 mmHg 56%
06:00 +21°C° 0 mm 0 m/S 698 mmHg 58%
07:00 +26°C° 0 mm 1 m/S 699 mmHg 49%
08:00 +30°C° 0 mm 1 m/S 700 mmHg 40%
09:00 +33°C° 0 mm 1 m/S 701 mmHg 32%
10:00 +35°C° 0 mm 1 m/S 700 mmHg 27%
11:00 +38°C° 0 mm 2 m/S 700 mmHg 23%
12:00 +40°C° 0 mm 3 m/S 700 mmHg 18%
13:00 +40°C° 0 mm 3 m/S 699 mmHg 17%
14:00 +41°C° 0 mm 4 m/S 699 mmHg 17%
15:00 +41°C° 0 mm 4 m/S 698 mmHg 16%
16:00 +38°C° 0 mm 4 m/S 698 mmHg 19%
17:00 +36°C° 0 mm 4 m/S 698 mmHg 23%
18:00 +34°C° 0 mm 3 m/S 698 mmHg 26%
19:00 +31°C° 0 mm 3 m/S 698 mmHg 32%
20:00 +29°C° 0 mm 3 m/S 699 mmHg 38%
21:00 +28°C° 0 mm 3 m/S 699 mmHg 44%
22:00 +26°C° 0 mm 3 m/S 700 mmHg 54%
23:00 +25°C° 0 mm 3 m/S 700 mmHg 64%

4 Oktober, Sonntag

Zeit Temperatur Niederschläge Wind Luftdruck Luftfeuchtigkeit
00:00 +23°C° 0 mm 4 m/S 700 mmHg 73%
01:00 +22°C° 0 mm 3 m/S 700 mmHg 76%
02:00 +22°C° 0 mm 3 m/S 700 mmHg 79%
03:00 +21°C° 0 mm 3 m/S 699 mmHg 82%
04:00 +21°C° 0 mm 3 m/S 700 mmHg 83%
05:00 +21°C° 0 mm 3 m/S 700 mmHg 84%
06:00 +21°C° 0 mm 3 m/S 701 mmHg 85%
07:00 +24°C° 0 mm 3 m/S 701 mmHg 76%
08:00 +26°C° 0 mm 4 m/S 702 mmHg 66%
09:00 +28°C° 0 mm 4 m/S 703 mmHg 57%
10:00 +30°C° 0 mm 4 m/S 703 mmHg 51%
11:00 +33°C° 0 mm 4 m/S 702 mmHg 45%
12:00 +34°C° 0 mm 4 m/S 702 mmHg 39%
13:00 +34°C° 0 mm 4 m/S 701 mmHg 39%
14:00 +34°C° 0 mm 4 m/S 700 mmHg 39%
15:00 +34°C° 0 mm 4 m/S 700 mmHg 39%
16:00 +33°C° 0 mm 4 m/S 700 mmHg 44%
17:00 +30°C° 0 mm 4 m/S 700 mmHg 48%
18:00 +29°C° 0 mm 4 m/S 700 mmHg 53%
19:00 +27°C° 0.1 mm 4 m/S 701 mmHg 59%
20:00 +26°C° 0.1 mm 4 m/S 701 mmHg 65%
21:00 +25°C° 0.1 mm 4 m/S 702 mmHg 71%
22:00 +23°C° 0 mm 4 m/S 702 mmHg 74%
23:00 +22°C° 0 mm 3 m/S 702 mmHg 77%
Mehr zeigen